Location: Madrid
(40.4167°N, 3.7036°W)
Time: 11:11:13
(UTC+00:00)

ISS - Pass Details

Date: 04 May 2025
Orbit: 416 x 419 km, 51.6° (Epoch: 14 May)

Event Time Altitude Azimuth Distance (km) Brightness Sun altitude
Rises 04:09:26 0° 312° (NW) 2,361 -0.1 -11.1°
Reaches altitude 10° 04:11:50 10° 328° (NNW) 1,496 -0.9 -10.7°
Maximum altitude 04:14:33 22° 22° (NNE) 962 -1.2 -10.3°
Drops below altitude 10° 04:17:15 10° 76° (ENE) 1,493 0.4 -9.9°
Sets 04:19:39 0° 92° (E) 2,355 1.1 -9.5°
